Weather Roundup
Issued by NWS

Home | Current Version | Previous Version | Graphics & Text | Print | Product List | Glossary Off
Versions: 1 2 3 4 5 6 7 8 9 10 11 12 13 14 15 16 17 18 19 20 21 22 23 24 25 26 27 28 29 30 31 32 33 34 35 36 37 38 39 40 41 42 43 44 45 46 47 48 49 50

000
NZUS93 KARX 290810
HRRWXR

CURRENT HOURLY OBSERVATIONS ACROSS
MUCH OF THE UPPER MISSISSIPPI VALLEY
NATIONAL WEATHER SERVICE LA CROSSE WI
300 AM CDT FRI MAY 29 2015


...SOUTHEAST MINNESOTA...


CITY           SKY/WX    TMP DP  RH WIND       PRES   REMARKS
ROCHESTER      CLOUDY    65  59  81 S8        29.95F
ROCHESTER/MAYO CLOUDY    65  59  78 SE5       29.94F
WINONA         LGT RAIN  66  61  82 SE3       29.96S
AUSTIN         CLOUDY    64  61  88 S7        29.93F
ALBERT LEA     CLOUDY    66  61  82 S5        29.92S
DODGE CENTER   CLOUDY    64  61  88 SE8       29.93F
PRESTON        CLOUDY    64  58  82 S10       29.96F
OWATONNA       LGT RAIN  66  61  82 S7        29.92S
FARIBAULT      LGT RAIN  64  63  94 SE6       29.91S
$$

...ELSEWHERE IN MINNESOTA...


CITY           SKY/WX    TMP DP  RH WIND       PRES   REMARKS
MINNEAPOLIS    LGT RAIN  67  62  84 S13       29.89F
INTNL FALLS    LGT RAIN  59  57  93 VRB3      29.82F
DULUTH         CLOUDY    49  44  83 CALM      29.88S
RED WING       LGT RAIN  64  61  88 SE8       29.91F
REDWOOD FALLS  MOCLDY    65  61  87 S5        29.85S
MANKATO        MOCLDY    66  61  82 S7        29.88F
WORTHINGTON    CLOUDY    64  61  88 S10       29.89F
FAIRMONT       CLOUDY    66  61  82 S13       29.89F
$$

...SOUTHWEST WISCONSIN...


CITY           SKY/WX    TMP DP  RH WIND       PRES   REMARKS
LA CROSSE      LGT RAIN  65  60  84 E7        29.96F
PRAIRIE DU CHI CLOUDY    63  60  88 E3        29.97F
BOSCOBEL       LGT RAIN  63  60  90 CALM      30.00F
LONE ROCK      LGT RAIN  65  58  78 CALM      30.02R
PLATTEVILLE    CLOUDY    64  60  87 E5        30.02F
FORT MC COY    LGT RAIN  60  59  95 CALM      30.00S
CAMP DOUGLAS   DRIZZLE   64  64 100 S5        30.00R
VIROQUA        CLOUDY    62  58  86 SE9       30.00F
WIS DELLS      DRIZZLE   67  55  64 SW9       30.03R
$$

...ELSEWHERE IN WISCONSIN...


CITY           SKY/WX    TMP DP  RH WIND       PRES   REMARKS
MILWAUKEE      CLOUDY    62  53  72 SE9       30.04F
MADISON        CLOUDY    69  55  60 S7        30.01F
GREEN BAY      CLOUDY    67  56  67 S10       30.03F
EAU CLAIRE     LGT RAIN  63  60  90 E5        29.94F
BLACK RVR FLS  LGT RAIN  61  61  99 E3        29.98S
MEDFORD        RAIN      62  56  80 S9        30.01R
WAUSAU         CLOUDY    64  55  72 S5        29.99F
WIS RAPIDS     CLOUDY    66  54  65 SE3       30.01F
MARSHFIELD     LGT RAIN  64  56  75 SW3       29.99F
RICE LAKE      MOCLDY    63  57  82 SE7       29.95F
$$

...NORTHEAST IOWA...


CITY           SKY/WX    TMP DP  RH WIND       PRES   REMARKS
DECORAH        CLOUDY    64  61  88 S6        29.97S
MASON CITY     CLOUDY    65  62  90 S9        29.94F
CHARLES CITY   CLOUDY    64  64 100 S13       29.96S
OELWEIN        CLOUDY    64  63  94 S8        29.98S
$$

...ELSEWHERE IN IOWA...


CITY           SKY/WX    TMP DP  RH WIND       PRES   REMARKS
DES MOINES     MOCLDY    64  61  90 S5        29.95S
IOWA CITY      CLOUDY    65  62  90 S5        30.00F
FORT DODGE     MOCLDY    64  61  88 S9G18     29.93S
$$

...NORTHERN ILLINOIS...


CITY           SKY/WX    TMP DP  RH WIND       PRES   REMARKS
CHICAGO-OHARE  MOCLDY    66  57  72 S8        30.05R
CHICAGO-MIDWAY CLOUDY    73  60  63 S7        30.05R
MOLINE         CLOUDY    66  61  84 E5        29.99F
ROCKFORD       CLOUDY    65  56  72 S6        30.04S
PEORIA         MOCLDY    71  64  78 S7        30.02F
$$

NOTE: "FAIR" INDICATES FEW OR NO CLOUDS BELOW 12,000 FEET WITH NO
SIGNIFICANT WEATHER AND/OR OBSTRUCTIONS TO VISIBILITY. WIND
SPEEDS ARE IN MILES-PER-HOUR.



USA.gov is the U.S. government's official web portal to all federal, state and local government web resources and services.